sat.trackr.live / text

‹ back to catalog

STARLINK-31689

NORAD 59567 · 2024-076D

PAYLOAD ACTIVE UNKNOWN

§ Identity

Operator
Country
US
Launch date
2024-04-23
Launch site
AFETR
Launch vehicle
Mass (kg)
RCS (m²)

Purposes: comms

External: N2YO · Heavens-Above · Gunter

§ Orbital elements

Epoch: 2026-05-25T03:26:12.380640Z

Period
94.27 min
Inclination
43.0022°
Eccentricity
0.0001639
Mean motion
15.27574434 rev/d
Perigee alt
481.9 km
Apogee alt
484.2 km
Semi-major
6,861.2 km
B*
2.6716e-5
RAAN
293.9115°
Arg perigee
246.5969°
Mean anomaly
113.4710°
Rev number
11,823

§ Raw data

STARLINK-316891 59567U 24076D   26145.14319885  .00000473  00000+0  26716-4 0  99972 59567  43.0022 293.9115 0001639 246.5969 113.4710 15.27574434118239

JSON: /api/v1/satellites/59567 · /tle

For live sub-satellite position, see the globe view (requires WebGL).

§ Visibility from observer

Set your observer location to see the next 7 days of passes ≥ 10°. The values pass through the URL so the page stays shareable.

No JS? Fill the form by hand. The geolocation button needs JavaScript.